GPS BIIF-11 (PRN 10)

Last updated on Fri Jul 10 2026 00:03:24 GMT+0000 (Coordinated Universal Time)

1 41019U 15062A 26190.21446300 -.00000050 00000+0 00000+0 0 9991 2 41019 56.9742 29.9632 0112606 230.9151 128.1287 2.00566961 78276
UTC large
Height (km)
Speed (km/s)
/
Latitude / Longitude
Inclination (degrees)
Orbital Period (minutes)
Azimuth
Elevation
Range (km)
Doppler Factor

Next 0 passes for location: London (51.5072 / 0.1276)

No passes found over London.
GPS BIIF-11 (PRN 10)